**Search for your results by entering your last name OR bib number OR search by age group to compare your stats with others
Individual Search
 
Bib:
Last Name:
All Participants Search
 
Top Ten Women
PlaceNameTimePace
1.Cynthia Jerop2:54:21.786:39/M
2.Hannah Steffan3:03:59.697:01/M
3.Hyvon Ngetich3:04:02.687:01/M
4.Amber Reber3:05:38.657:05/M
5.Keri Rimel3:09:16.647:13/M
6.Emily McCoy3:12:02.337:20/M
7.Sarah Jackson3:13:32.007:23/M
8.Brenda Carawan3:13:54.177:24/M
9.Allison MacSas3:14:53.257:26/M
10.L Buckley3:16:11.937:29/M
Top Ten Men
PlaceNameTimePace
1.Betram Keter2:16:20.085:12/M
2.Stanley Boen2:31:34.075:47/M
3.Daniel Bishop2:31:50.545:48/M
4.Thomas Lentz2:38:06.566:02/M
5.Adam Waldum2:38:18.326:03/M
6.Bryan Morton2:42:05.926:11/M
7.Dmitry Antonov2:42:59.776:13/M
8.Ben Sauvage2:43:26.416:14/M
9.Marc Bergman2:44:49.916:17/M
10.Gary Gold2:46:14.676:21/M
Contact us for results help

Gallery of Events

Contact Us

Address:
172 Trademark Drive
Buda, Texas 78610

Phone:
(512) 386 - 7966

Email:
info@cadencesports.com